Weather History for Rolla, ND

Change the Weather History Date:

Thursday, November 29, 2012

  Actual Average (KRUG) Record (KRUG)
Temperature  
Mean Temperature 6 °F -  
Max Temperature 8 °F 28 °F 47 °F (1982)
Min Temperature 5 °F 9 °F -27 °F (1985)
Degree Days  
Heating Degree Days 58    
Moisture  
Dew Point 4 °F    
Average Humidity 86    
Maximum Humidity 92    
Minimum Humidity 78    
Precipitation  
Precipitation 0.00 in - - ()
Sea Level Pressure  
Sea Level Pressure 30.16 in    
Wind  
Wind Speed 13 mph (ENE)    
Max Wind Speed 16 mph    
Max Gust Speed 21 mph    
Visibility 10 miles    
Events      
Averages and records for this station are not official NWS values.
T = Trace of Precipitation, MM = Missing Value Source: NWS Daily Summary

Daily Weather History Graph

Daily Weather History Graph

Search for Another Location

Airport:

Trip Planner

Search our weather history database for the weather conditions in past years. The results will help you decide how hot, cold, wet, or windy it might be!

Date:

Astronomy

Nov. 29, 2012 Rise Set
Actual Time 8:08 AM CST 4:44 PM CST
Civil Twilight 7:32 AM CST 5:21 PM CST
Nautical Twilight 6:53 AM CST 6:00 PM CST
Astronomical Twilight 6:15 AM CST 6:38 PM CST
Moon 5:48 PM CST (11/29) 8:57 AM CST (11/29)
Length of Visible Light 9h 48m
Length of Day
8h 36m
Full, 99% of the Moon is Illuminated
Nov 29
Full
Dec 6
Last Quarter
Dec 13
New
Dec 19
First Quarter
Dec 28
Full

Hourly Weather History & Observations

Time (CST) Temp. Windchill Dew Point Humidity Pressure Visibility Wind Dir Wind Speed Gust Speed Precip Events Conditions
12:15 AM 8.6 °F -8.3 °F 5.0 °F 85% 30.16 in 10.0 mi NE 15.0 mph - N/A   Overcast
12:35 AM 8.6 °F -7.7 °F 5.0 °F 85% 30.16 in 10.0 mi NE 13.8 mph - N/A   Overcast
12:55 AM 8.6 °F -7.0 °F 5.0 °F 85% 30.17 in 10.0 mi NE 12.7 mph - N/A   Overcast
1:15 AM 8.6 °F -7.0 °F 5.0 °F 85% 30.16 in 10.0 mi NE 12.7 mph - N/A   Overcast
1:35 AM 8.6 °F -7.0 °F 5.0 °F 85% 30.16 in 10.0 mi NE 12.7 mph - N/A   Overcast
1:55 AM 8.6 °F -7.7 °F 5.0 °F 85% 30.15 in 10.0 mi NE 13.8 mph - N/A   Overcast
2:15 AM 8.6 °F -7.7 °F 6.8 °F 92% 30.16 in 10.0 mi NE 13.8 mph - N/A   Overcast
2:35 AM 8.6 °F -6.3 °F 5.0 °F 85% 30.16 in 10.0 mi NE 11.5 mph - N/A   Overcast
2:55 AM 8.6 °F -6.3 °F 6.8 °F 92% 30.17 in 10.0 mi NE 11.5 mph - N/A   Overcast
3:35 AM 6.8 °F -10.0 °F 5.0 °F 92% 30.17 in 10.0 mi ENE 13.8 mph - N/A   Overcast
3:55 AM 6.8 °F -10.7 °F 5.0 °F 92% 30.17 in 10.0 mi ENE 15.0 mph - N/A   Overcast
4:15 AM 6.8 °F -10.0 °F 5.0 °F 92% 30.16 in 10.0 mi NE 13.8 mph - N/A   Overcast
4:35 AM 6.8 °F -9.3 °F 5.0 °F 92% 30.15 in 10.0 mi ENE 12.7 mph - N/A   Overcast
4:55 AM 6.8 °F -10.7 °F 3.2 °F 85% 30.16 in 10.0 mi ENE 15.0 mph - N/A   Overcast
5:15 AM 6.8 °F -11.3 °F 3.2 °F 85% 30.16 in 10.0 mi ENE 16.1 mph - N/A   Overcast
5:35 AM 6.8 °F -8.6 °F 1.4 °F 79% 30.16 in 10.0 mi ENE 11.5 mph - N/A   Overcast
5:55 AM 5.0 °F -13.0 °F 1.4 °F 85% 30.16 in 10.0 mi ENE 15.0 mph - N/A   Scattered Clouds
6:15 AM 5.0 °F -12.3 °F 1.4 °F 85% 30.16 in 10.0 mi NE 13.8 mph - N/A   Clear
6:35 AM 5.0 °F -12.3 °F -0.4 °F 78% 30.17 in 10.0 mi NE 13.8 mph - N/A   Clear
6:55 AM 5.0 °F -10.8 °F -0.4 °F 78% 30.17 in 10.0 mi NE 11.5 mph - N/A   Partly Cloudy
7:15 AM 5.0 °F -10.0 °F -0.4 °F 78% 30.18 in 10.0 mi NE 10.4 mph - N/A   Clear
7:35 AM 5.0 °F -11.6 °F -0.4 °F 78% 30.17 in 10.0 mi ENE 12.7 mph - N/A   Clear
7:55 AM 5.0 °F -11.6 °F 1.4 °F 85% 30.17 in 10.0 mi NE 12.7 mph - N/A   Clear
8:15 AM 5.0 °F -12.3 °F 1.4 °F 85% 30.18 in 10.0 mi ENE 13.8 mph - N/A   Clear
8:35 AM 5.0 °F -11.6 °F 1.4 °F 85% 30.18 in 10.0 mi ENE 12.7 mph - N/A   Clear
8:55 AM 5.0 °F -11.6 °F 1.4 °F 85% 30.18 in 10.0 mi ENE 12.7 mph - N/A   Clear
9:35 AM 5.0 °F -13.0 °F 1.4 °F 85% 30.18 in 10.0 mi NE 15.0 mph - N/A   Clear
10:15 AM 5.0 °F -13.0 °F 1.4 °F 85% 30.18 in 10.0 mi ENE 15.0 mph - N/A   Scattered Clouds
10:35 AM 5.0 °F -13.0 °F 1.4 °F 85% 30.18 in 10.0 mi ENE 15.0 mph - N/A   Partly Cloudy
10:55 AM 5.0 °F -13.6 °F 1.4 °F 85% 30.19 in 10.0 mi ENE 16.1 mph - N/A   Clear
11:15 AM 5.0 °F -11.6 °F 1.4 °F 85% 30.20 in 10.0 mi ENE 12.7 mph - N/A   Clear
11:35 AM 5.0 °F -13.6 °F 1.4 °F 85% 30.19 in 10.0 mi ENE 16.1 mph - N/A   Clear
11:55 AM 6.8 °F -10.7 °F 1.4 °F 79% 30.19 in 10.0 mi ENE 15.0 mph - N/A   Clear
12:15 PM 6.8 °F -10.7 °F 1.4 °F 79% 30.18 in 10.0 mi ENE 15.0 mph - N/A   Clear
12:35 PM 6.8 °F -9.3 °F 1.4 °F 79% 30.19 in 10.0 mi NE 12.7 mph - N/A   Clear
12:55 PM 6.8 °F -10.7 °F 1.4 °F 79% 30.18 in 10.0 mi ENE 15.0 mph - N/A   Clear
1:15 PM 6.8 °F -8.6 °F 1.4 °F 79% 30.18 in 10.0 mi ENE 11.5 mph - N/A   Clear
1:35 PM 6.8 °F -9.3 °F 1.4 °F 79% 30.16 in 10.0 mi ENE 12.7 mph - N/A   Clear
1:55 PM 6.8 °F -9.3 °F 1.4 °F 79% 30.16 in 10.0 mi ENE 12.7 mph - N/A   Clear
2:15 PM 6.8 °F -9.3 °F 3.2 °F 85% 30.16 in 10.0 mi ENE 12.7 mph - N/A   Clear
2:35 PM 6.8 °F -10.0 °F 3.2 °F 85% 30.14 in 10.0 mi ENE 13.8 mph - N/A   Clear
2:55 PM 6.8 °F -10.0 °F 3.2 °F 85% 30.14 in 10.0 mi ENE 13.8 mph - N/A   Clear
3:15 PM 8.6 °F -8.3 °F 5.0 °F 85% 30.13 in 10.0 mi ENE 15.0 mph - N/A   Clear
3:35 PM 6.8 °F -10.0 °F 5.0 °F 92% 30.13 in 10.0 mi East 13.8 mph - N/A   Clear
3:55 PM 8.6 °F -7.0 °F 5.0 °F 85% 30.13 in 10.0 mi ENE 12.7 mph - N/A   Mostly Cloudy
4:15 PM 8.6 °F -7.7 °F 5.0 °F 85% 30.13 in 10.0 mi East 13.8 mph - N/A   Mostly Cloudy
4:35 PM 6.8 °F -10.0 °F 5.0 °F 92% 30.12 in 10.0 mi East 13.8 mph 17.3 mph N/A   Mostly Cloudy
4:55 PM 6.8 °F -8.6 °F 5.0 °F 92% 30.13 in 10.0 mi East 11.5 mph - N/A   Mostly Cloudy
5:15 PM 6.8 °F -6.9 °F 5.0 °F 92% 30.14 in 10.0 mi ENE 9.2 mph - N/A   Overcast
5:35 PM 6.8 °F -10.0 °F 5.0 °F 92% 30.12 in 10.0 mi East 13.8 mph - N/A   Overcast
5:55 PM 6.8 °F -10.7 °F 5.0 °F 92% 30.13 in 10.0 mi East 15.0 mph - N/A   Overcast
6:15 PM 6.8 °F -10.0 °F 5.0 °F 92% 30.14 in 10.0 mi East 13.8 mph 18.4 mph N/A   Overcast
6:35 PM 6.8 °F -7.8 °F 5.0 °F 92% 30.14 in 10.0 mi East 10.4 mph - N/A   Overcast
6:55 PM 6.8 °F -9.3 °F 5.0 °F 92% 30.14 in 10.0 mi ENE 12.7 mph - N/A   Overcast
7:15 PM 6.8 °F -7.8 °F 5.0 °F 92% 30.16 in 10.0 mi ENE 10.4 mph - N/A   Overcast
7:35 PM 6.8 °F -9.3 °F 5.0 °F 92% 30.14 in 10.0 mi East 12.7 mph - N/A   Overcast
7:55 PM 6.8 °F -6.9 °F 5.0 °F 92% 30.14 in 10.0 mi East 9.2 mph - N/A   Overcast
8:15 PM 6.8 °F -6.9 °F 5.0 °F 92% 30.15 in 10.0 mi East 9.2 mph - N/A   Overcast
8:35 PM 6.8 °F -8.6 °F 5.0 °F 92% 30.14 in 10.0 mi East 11.5 mph - N/A   Overcast
8:55 PM 6.8 °F -8.6 °F 5.0 °F 92% 30.15 in 10.0 mi East 11.5 mph 17.3 mph N/A   Overcast
9:15 PM 8.6 °F -6.3 °F 5.0 °F 85% 30.17 in 10.0 mi East 11.5 mph - N/A   Overcast
9:35 PM 8.6 °F -7.7 °F 5.0 °F 85% 30.15 in 10.0 mi East 13.8 mph - N/A   Overcast
9:55 PM 8.6 °F -7.0 °F 5.0 °F 85% 30.14 in 10.0 mi East 12.7 mph 20.7 mph N/A   Overcast
10:15 PM 8.6 °F -6.3 °F 5.0 °F 85% 30.14 in 10.0 mi East 11.5 mph - N/A   Overcast
10:35 PM 8.6 °F -6.3 °F 5.0 °F 85% 30.15 in 10.0 mi East 11.5 mph - N/A   Overcast
10:55 PM 8.6 °F -7.0 °F 5.0 °F 85% 30.14 in 10.0 mi East 12.7 mph - N/A   Overcast
11:15 PM 8.6 °F -6.3 °F 6.8 °F 92% 30.13 in 10.0 mi East 11.5 mph - N/A   Overcast
11:35 PM 8.6 °F -7.7 °F 6.8 °F 92% 30.12 in 10.0 mi East 13.8 mph - N/A   Overcast
11:55 PM 8.6 °F -4.7 °F 6.8 °F 92% 30.13 in 10.0 mi East 9.2 mph - N/A   Overcast